Lexington Weather

Lexington, Massachusetts, USA

34°F
4/16/2021 11:24am 
  • Lexington Conditions: Light snow, Mist, Overcast
  • Temperature: 34.0°F / 1.1°C 
  • Dew Point: 32.7°F 
  • Relative Humidity: 95
  • Wind: Wind from NNE NNE Calm, 10-min avg: 1 mph, gust: 3 mph
  • Barometer: 29.45 inFalling 0.04  inHg/hr Falling Slowly
  • Visibility: ¾ mile
  • Snow Today: 1.7 in
  •   

Regional Weather Roundup
for Boston / Norton, MA

        
000
ASUS41 KBOX 140904
RWRBOX

REGIONAL WEATHER ROUNDUP
NATIONAL WEATHER SERVICE BOSTON/NORTON MA
500 AM EDT WED APR 14 2021

NOTE:  "FAIR" INDICATES FEW OR NO CLOUDS BELOW 12,000 FEET WITH NO 
SIGNIFICANT WEATHER AND/OR OBSTRUCTIONS TO VISIBILITY.

MAZALL-141000-
EASTERN MASSACHUSETTS
  
CITY           SKY/WX    TMP DP  RH WIND       PRES   REMARKS
BOSTON         LGT RAIN  47  39  74 SE5       30.08R                  
BEVERLY        NOT AVBL                                               
LAWRENCE       CLOUDY    46  39  76 CALM      30.09R                  
BEDFORD        CLOUDY    47  38  71 E5        30.06R                  
BLUE HILL        N/A     43  38  82 S8        30.04S                  
NORWOOD        CLOUDY    46  39  76 CALM      30.07R                  
MARSHFIELD     DRIZZLE   43  43 100 CALM      30.07S                  
PLYMOUTH       CLOUDY    41  40  96 CALM      30.06S                  
TAUNTON        CLOUDY    42  40  92 CALM      30.07S                  
NEW BEDFORD    CLOUDY    42  39  89 CALM      30.07R                  
$$

MAZALL-141000-
CAPE COD AND THE ISLANDS
  
CITY           SKY/WX    TMP DP  RH WIND       PRES   REMARKS
FALMOUTH       PTCLDY    36  34  93 CALM      30.07                   
HYANNIS        CLOUDY    41  38  89 CALM      30.05S                  
CHATHAM        CLOUDY    43  39  86 VRB3      30.07S                  
PROVINCETOWN   CLOUDY    44  42  93 N7        30.09R                  
NANTUCKET      CLOUDY    44  40  85 N6        30.06R                  
MARTHAS VNYRD  CLOUDY    37  36  96 NW3       30.06S                  
$$
 
MAZALL-141000-
CENTRAL AND WESTERN MASSACHUSETTS
  
CITY           SKY/WX    TMP DP  RH WIND       PRES   REMARKS
WORCESTER      CLOUDY    46  39  76 CALM      30.03S                  
FITCHBURG      CLOUDY    47  40  76 E5        30.06R                  
ORANGE         CLOUDY    49  42  77 CALM      30.04R                  
SPRINGFIELD    CLOUDY    48  40  73 S3        30.03R                  
WESTFIELD      CLOUDY    48  41  76 SE3       30.03R                  
NORTH ADAMS    CLOUDY    46  42  86 CALM      30.03R                  
PITTSFIELD     CLOUDY    52  40  63 SW3       30.01S                  
$$
 
RIZALL-141000-
RHODE ISLAND
  
CITY           SKY/WX    TMP DP  RH WIND       PRES   REMARKS
PROVIDENCE     CLOUDY    46  41  82 S5        30.07S                  
NEWPORT        CLOUDY    44  42  93 S3        30.06S                  
BLOCK ISLAND   CLOUDY    43  40  89 W5        30.08S                  
SMITHFIELD     CLOUDY    45  42  89 CALM      30.05F                  
WESTERLY       CLOUDY    44  40  85 S3        30.07S                  
$$
 
CTZALL-141000-
CONNECTICUT
  
CITY           SKY/WX    TMP DP  RH WIND       PRES   REMARKS
BRADLEY INTL   MOCLDY    49  39  68 S8        30.03S                  
HARTFORD       PTCLDY    48  39  71 S5        30.05S                  
BRIDGEPORT     PTCLDY    47  40  76 W5        30.06S                  
DANBURY        CLEAR     46  38  73 CALM      30.06S                  
GROTON         PTCLDY    44  42  93 S5        30.06S                  
NEW HAVEN      CLEAR     47  40  76 CALM      30.06S                  
CHESTER        FAIR      46  41  81 W5        30.05S                  
MERIDEN        CLEAR     42  37  82 CALM      30.06S                  
WILLIMANTIC    CLOUDY    47  40  76 CALM      30.05S                  
OXFORD         CLEAR     45  41  86 W5        30.05S                  
$$

MEZ002-015-021-024-NHZ003-005-008-011-012-014-VTZ005-008-141000-
NORTHERN NEW ENGLAND
  
CITY           SKY/WX    TMP DP  RH WIND       PRES   REMARKS
PORTLAND ME    CLOUDY    39  39 100 CALM      30.10R                  
BANGOR ME      CLEAR     34  28  79 N9        30.10S WCI  27          
CONCORD NH     CLOUDY    44  38  79 E3        30.07S                  
MANCHESTER NH  LGT RAIN  47  39  74 CALM      30.06R                  
NASHUA NH      CLOUDY    47  41  80 E6        30.07S                  
PORTSMOUTH NH  MOCLDY    45  39  80 E3        30.10R                  
JAFFREY NH     CLOUDY    45  43  93 CALM      30.04R                  
KEENE NH       CLOUDY    48  45  89 CALM      30.03S                  
BURLINGTON VT  CLOUDY    50  42  74 CALM      30.03S                  
MT. WASHINGTON NOT AVBL                                               
$$

NYZ052-076-141000-
EASTERN NEW YORK
  
CITY           SKY/WX    TMP DP  RH WIND       PRES   REMARKS
ALBANY         MOCLDY    49  39  68 CALM      30.03S                  
NEW YORK CITY  PTCLDY    49  43  80 S6        30.05F                  
$$
 
ANZALL-141000-
MARINE OBSERVATIONS
  
STATION/POSITION TIME  TEMP    WIND        PRES    VSBY  WAVE
                       AIR SEA DIR/SP/G                  HT/PER
                 (UTC) (F)     (DEG/KT/KT) (MB)    (MI)  (FT/S)
BOSTON BUOY      0840   44 44   40/  2/  4 1018.9R
BUZZARDS BAY     0800          100/  4/  4 1019.3F
NANTUCKET SOUND  0840      47                N/A
MASS BAY-STELLWA 0804   44     300/  2/  4 1017.5R  1 7/8  5/ 8
ISLE OF SHOALS   0800   45      CALM  /  1 1018.2R
S OF BLOCK IS    0826      44                N/A           3/ 8
$$

......................KEY.........................
  SKY/WX - SKY CONDITION/PRESENT WEATHER
  TMP    - TEMPERATURE IN FAHRENHEIT
  DWPT   - DEWPOINT IN FAHRENHEIT
  RH     - RELATIVE HUMIDITY IN PERCENT
  WIND   - DIRECTION AND SPEED IN MPH
  PRES   - MEAN SEA LEVEL PRESSURE IN INCHES OF HG
  WCI    - WIND CHILL INDEX
  VSB    - VISIBILITY IN MILES
  HX     - HEAT INDEX
  TC     - TEMPERATURE IN CELSIUS
  VRB    - VARIABLE WIND DIRECTION
  N/A    - NOT AVAILABLE
  
      

Other recent Regional Weather Roundups

Fri Apr 16, 11:04am

Fri Apr 16, 10:05am

Fri Apr 16, 9:04am

Fri Apr 16, 8:04am

Fri Apr 16, 7:04am

Fri Apr 16, 6:04am

Fri Apr 16, 5:04am

Fri Apr 16, 4:04am

Fri Apr 16, 3:04am

Fri Apr 16, 2:04am

Fri Apr 16, 1:04am

Fri Apr 16, 12:04am

Thu Apr 15, 11:05pm

Thu Apr 15, 10:04pm

Thu Apr 15, 9:04pm

Thu Apr 15, 8:04pm

Thu Apr 15, 7:05pm

Thu Apr 15, 6:04pm

Thu Apr 15, 5:05pm

Thu Apr 15, 4:04pm

Thu Apr 15, 3:05pm

Thu Apr 15, 2:04pm

Thu Apr 15, 1:05pm

Thu Apr 15, 12:04pm

Thu Apr 15, 11:04am

Thu Apr 15, 10:05am

Thu Apr 15, 9:04am

Thu Apr 15, 8:04am

Thu Apr 15, 7:04am

Thu Apr 15, 6:04am

Thu Apr 15, 5:04am

Thu Apr 15, 4:04am

Thu Apr 15, 3:04am

Thu Apr 15, 2:04am

Thu Apr 15, 1:04am

Thu Apr 15, 12:04am

Wed Apr 14, 11:04pm

Wed Apr 14, 10:04pm

Wed Apr 14, 9:04pm

Wed Apr 14, 8:04pm

Wed Apr 14, 7:04pm

Wed Apr 14, 6:04pm

Wed Apr 14, 5:05pm

Wed Apr 14, 4:04pm

Wed Apr 14, 3:05pm

Wed Apr 14, 2:04pm

Wed Apr 14, 1:05pm

Wed Apr 14, 12:04pm

Wed Apr 14, 11:04am

Wed Apr 14, 10:04am

Wed Apr 14, 9:04am

Wed Apr 14, 8:04am

Wed Apr 14, 7:04am

Wed Apr 14, 6:04am

Wed Apr 14, 4:04am

Wed Apr 14, 3:04am

Wed Apr 14, 2:04am

Wed Apr 14, 1:04am

Wed Apr 14, 12:04am

Tue Apr 13, 11:04pm

Tue Apr 13, 10:05pm

Tue Apr 13, 9:05pm

Tue Apr 13, 8:05pm

Tue Apr 13, 7:04pm

Tue Apr 13, 6:04pm

Tue Apr 13, 5:05pm

Tue Apr 13, 4:04pm

Tue Apr 13, 3:04pm

Tue Apr 13, 2:05pm

Tue Apr 13, 1:04pm

Tue Apr 13, 12:05pm

Tue Apr 13, 11:05am

Tue Apr 13, 10:04am

Tue Apr 13, 9:04am

Tue Apr 13, 8:04am

Tue Apr 13, 7:04am

Tue Apr 13, 6:04am

Tue Apr 13, 5:04am

Tue Apr 13, 4:04am

Tue Apr 13, 3:04am

Tue Apr 13, 2:04am

Tue Apr 13, 1:04am

Tue Apr 13, 12:05am

Mon Apr 12, 11:04pm

Mon Apr 12, 10:04pm

Mon Apr 12, 9:04pm

Mon Apr 12, 8:04pm

Mon Apr 12, 7:05pm

Mon Apr 12, 6:04pm

Mon Apr 12, 5:04pm

Mon Apr 12, 4:04pm

Mon Apr 12, 3:05pm

Mon Apr 12, 2:04pm

Mon Apr 12, 1:05pm

Mon Apr 12, 12:04pm

Mon Apr 12, 11:04am

Mon Apr 12, 10:04am

Mon Apr 12, 9:04am

Mon Apr 12, 8:04am

Mon Apr 12, 7:04am

Mon Apr 12, 6:04am

Mon Apr 12, 5:04am

Mon Apr 12, 4:04am

Mon Apr 12, 3:04am

Mon Apr 12, 2:04am

Mon Apr 12, 1:05am

Mon Apr 12, 12:04am

Sun Apr 11, 11:04pm

Sun Apr 11, 10:04pm

Sun Apr 11, 9:04pm

Sun Apr 11, 8:04pm

Sun Apr 11, 7:04pm

Sun Apr 11, 6:05pm

Sun Apr 11, 5:05pm

Sun Apr 11, 4:04pm

Sun Apr 11, 3:05pm

Sun Apr 11, 2:05pm

Sun Apr 11, 1:05pm

Sun Apr 11, 12:04pm

Sun Apr 11, 11:05am

Sun Apr 11, 10:05am

Sun Apr 11, 9:04am

Sun Apr 11, 8:04am

Sun Apr 11, 7:04am

Sun Apr 11, 6:04am

Sun Apr 11, 5:04am

Sun Apr 11, 4:04am

Sun Apr 11, 3:04am

Sun Apr 11, 2:04am

Sun Apr 11, 1:05am

Sun Apr 11, 12:04am

Sat Apr 10, 11:05pm

Sat Apr 10, 10:04pm

Sat Apr 10, 9:04pm

Sat Apr 10, 8:04pm

Sat Apr 10, 7:05pm

Sat Apr 10, 6:04pm

Sat Apr 10, 5:04pm

Sat Apr 10, 4:04pm

Sat Apr 10, 3:04pm

Sat Apr 10, 2:05pm

Sat Apr 10, 1:04pm

Sat Apr 10, 12:04pm

Sat Apr 10, 11:04am

Sat Apr 10, 10:04am

Sat Apr 10, 9:04am

Sat Apr 10, 8:04am

Sat Apr 10, 7:04am

Sat Apr 10, 6:04am

Sat Apr 10, 5:04am

Sat Apr 10, 4:04am

Sat Apr 10, 3:04am

Sat Apr 10, 2:04am

Sat Apr 10, 1:05am

Sat Apr 10, 12:04am

Fri Apr 9, 11:04pm

Fri Apr 9, 10:05pm

Fri Apr 9, 9:04pm

Fri Apr 9, 8:05pm

Fri Apr 9, 7:05pm

Fri Apr 9, 6:04pm

Fri Apr 9, 5:04pm

Fri Apr 9, 4:05pm

Fri Apr 9, 3:05pm

Fri Apr 9, 2:04pm

Fri Apr 9, 1:04pm

Fri Apr 9, 12:04pm

Meta data:

ID: 8f30d2f4-66f6-4074-96cd-33349827a654
Link: https://api.weather.gov/products/8f30d2f4-66f6-4074-96cd-33349827a654